Temp
20 20 21 20 19 19 19 19 19 19 19 19 19 19 19 19 19 19 19 19 19 19 18 18 18 18 18 18 18 19 19 18 18 18 19 19 19 19 19 18 18 18 19 19 19 19 19 19 19 19 19 19 19 19 19 19 19 19 19 18 18 19 19 19 19 19 19 18 19 19 19 18 18 18 19 19 19 19 20 20 20 19 19 19 19
22 20 20 20 20 19 19 19 19 19 19 19 19 19 19 19 19 19 19 19 19 18 18 18 18 18 18 18 18 18 18 18 18 18 18 18 18 19 19 19 19 19 19 19 19 19 19 18 18 19 19 19 19 19 19 19 19 19 19 19 19 19 19 18 18 18 19 18 19 19 19 19 18 18 18 19 19 19 20 20 20 20 18 18 19
22 20 20 20 20 19 19 19 19 19 19 19 19 19 19 19 19 19 19 19 18 18 18 18 18 18 18 18 18 18 18 18 18 18 18 18 18 19 19 19 19 19 18 19 19 19 18 18 18 19 19 19 19 19 19 19 19 19 19 19 19 19 18 18 18 18 18 18 18 19 19 19 19 19 19 19 19 19 20 20 20 19 18 18 19
22 21 20 20 20 19 19 19 19 19 19 19 19 19 19 19 19 19 19 18 18 18 18 18 18 18 18 18 18 18 18 18 18 18 18 18 18 18 19 19 19 18 18 18 18 18 18 18 18 18 18 19 19 19 19 19 19 19 19 19 19 19 19 18 18 18 18 18 18 18 18 18 18 19 19 19 19 19 19 19 19 19 18 18 18
22 21 20 20 19 19 19 19 19 19 18 19 19 19 19 19 19 19 19 19 18 18 18 18 18 18 18 18 18 18 18 18 18 18 18 18 18 18 18 19 19 18 18 18 18 18 18 18 18 18 18 18 18 18 18 18 19 19 19 19 19 19 19 18 18 18 18 18 18 18 18 18 18 18 18 19 19 19 19 19 19 19 19 18 18
23 22 21 20 20 19 19 19 19 19 18 19 19 19 19 19 19 19 19 19 18 18 18 18 18 18 18 18 18 18 18 18 18 18 18 18 18 18 18 18 18 18 18 18 18 18 18 17 17 18 18 18 18 18 18 18 18 18 19 20 20 19 19 19 18 18 18 18 18 18 18 18 18 18 18 18 18 19 18 18 18 19 18 18 18
22 22 21 20 20 19 19 19 18 18 19 19 19 19 19 19 19 18 18 18 18 18 18 18 18 18 18 18 18 18 18 18 18 18 18 18 18 18 18 18 18 18 18 18 18 17 17 17 17 17 17 18 18 18 18 18 18 18 19 20 20 20 19 19 18 18 18 18 18 18 18 18 18 18 18 18 18 18 18 18 18 18 18 18 18
22 22 21 21 20 20 19 19 19 18 18 19 19 19 19 19 18 18 18 18 18 18 18 18 18 18 18 18 18 18 18 18 18 18 18 18 18 18 18 18 18 18 18 17 17 17 17 16 16 16 17 17 17 17 17 18 18 19 19 20 20 20 19 19 18 18 18 18 18 17 17 17 17 18 18 18 18 18 18 17 17 18 18 18 18
22 21 21 21 21 20 19 19 19 19 18 18 18 18 18 18 18 18 18 18 18 18 18 18 18 18 18 18 18 18 18 18 18 18 17 18 18 18 18 18 18 18 17 17 17 17 16 16 16 16 16 17 17 17 17 18 19 19 19 20 20 19 19 18 18 18 18 18 17 17 17 17 17 18 17 17 17 17 17 17 18 18 18 17 17
21 21 21 21 21 20 20 19 19 19 19 18 18 18 18 18 18 18 18 18 18 18 18 18 18 18 18 18 18 18 18 18 18 17 17 18 18 18 18 18 17 17 17 17 17 17 16 16 16 15 15 16 16 17 18 18 19 19 19 19 19 19 19 18 18 18 18 18 17 17 17 17 17 17 17 17 18 18 17 17 18 18 17 17 17
21 21 21 21 21 21 20 20 19 19 19 18 18 18 18 18 18 18 18 18 18 18 18 18 18 18 18 18 18 18 18 18 18 17 17 17 18 17 17 17 17 17 17 17 17 17 17 16 16 15 15 15 16 17 18 18 19 19 19 19 19 19 18 18 18 18 17 17 17 17 17 17 17 17 17 17 17 17 17 17 17 17 17 17 17
21 21 21 21 21 21 20 20 19 19 19 18 19 19 18 18 18 18 18 18 18 18 18 18 18 18 18 18 18 18 18 18 18 17 17 17 17 17 17 17 17 17 17 17 17 17 17 16 16 15 15 15 17 17 18 18 18 19 19 19 19 18 18 17 17 17 17 17 17 17 17 17 17 17 17 17 17 17 17 17 17 17 17 17 17
21 21 21 21 21 21 20 20 19 19 19 19 19 19 18 18 18 18 18 18 18 18 18 18 18 18 18 18 18 18 18 18 18 17 17 17 18 18 17 18 17 17 17 17 17 17 17 16 16 15 15 16 17 17 18 18 18 18 19 19 19 18 18 17 17 17 17 17 16 16 16 16 17 17 17 17 17 17 17 17 17 16 16 16 16
22 21 21 21 21 21 21 20 20 19 19 19 19 19 19 18 18 18 18 18 18 18 18 18 18 18 18 18 18 18 18 18 18 17 17 17 17 18 17 17 17 17 17 17 17 17 17 16 15 14 15 16 17 17 17 18 18 18 18 19 19 18 18 18 17 17 16 16 16 16 16 16 16 16 16 16 16 16 16 16 16 16 16 16 16
23 22 21 21 21 21 21 20 20 19 19 19 19 19 19 18 18 18 18 18 18 18 18 18 18 18 18 18 18 18 18 18 17 17 17 17 17 17 17 17 17 17 17 17 16 16 16 16 15 14 15 16 17 17 17 17 18 18 18 18 18 18 18 18 18 17 16 16 16 16 16 16 16 16 16 16 16 16 16 16 16 16 16 15 15
22 22 21 21 20 20 20 20 20 20 19 19 19 19 19 18 18 18 18 18 18 18 18 18 18 18 18 18 18 18 18 18 17 17 17 17 17 17 17 17 17 17 16 16 16 16 16 16 15 14 15 16 17 17 17 17 17 18 18 18 18 18 18 18 18 17 16 16 16 16 16 16 16 16 16 16 15 15 15 15 15 15 15 15 15
21 21 21 21 20 20 20 20 20 20 19 19 19 19 19 18 18 18 18 18 18 18 18 18 18 18 18 18 18 18 18 17 17 17 17 17 17 17 17 17 17 17 16 16 16 16 16 15 15 15 15 16 17 17 17 17 17 17 18 18 18 18 18 18 18 18 17 16 16 16 15 16 16 15 15 15 15 15 15 15 15 15 15 15 15
21 21 21 21 20 20 20 20 20 19 19 19 19 19 19 18 18 18 18 18 18 18 18 18 18 18 18 18 18 18 18 17 17 17 17 17 17 17 17 17 17 16 16 16 16 16 15 15 14 15 15 16 17 17 17 17 17 17 17 18 18 18 18 18 18 18 17 17 17 16 16 15 15 15 15 15 15 14 14 14 14 14 14 14 14
21 21 21 21 20 20 20 19 19 19 19 19 18 18 19 18 18 18 18 18 18 18 18 18 18 18 18 18 18 18 18 17 17 17 17 17 17 17 17 17 16 16 16 16 16 16 15 14 14 15 15 16 17 16 17 17 17 17 17 17 17 17 17 18 18 18 17 17 17 17 16 15 15 15 15 14 14 14 14 14 14 14 14 14 14
21 21 21 21 21 20 20 19 19 19 19 19 18 18 18 18 18 18 18 18 18 18 18 18 18 18 18 18 18 18 18 17 17 17 17 17 17 17 17 16 16 16 16 15 15 15 15 14 14 15 16 17 16 16 16 17 17 17 17 17 17 17 17 17 17 17 17 17 17 17 16 15 15 15 15 14 14 14 15 14 14 14 14 14 13
20 20 20 20 20 20 20 19 19 19 19 19 18 18 18 18 18 18 18 18 18 18 18 18 18 18 18 18 18 18 17 17 17 17 17 17 17 17 16 16 16 16 16 15 15 15 14 14 14 14 16 17 16 16 16 17 17 17 17 17 17 17 17 17 17 17 17 17 17 17 16 16 15 14 14 15 15 15 15 15 14 14 13 13 13
21 20 20 20 20 20 20 19 19 19 19 18 18 18 18 18 18 18 18 18 18 17 17 17 17 17 17 17 18 17 17 17 17 17 17 16 16 16 16 16 16 16 16 15 15 15 14 14 13 14 16 17 16 16 16 17 17 17 17 17 17 17 17 17 17 16 16 16 17 16 16 15 15 14 14 14 14 15 15 14 14 13 13 13 13
21 21 21 21 20 20 20 19 19 19 19 18 18 17 17 17 17 17 17 17 17 17 17 17 17 17 17 17 17 17 17 17 17 17 16 16 16 16 16 16 16 16 16 15 15 15 14 14 13 14 17 17 16 16 16 17 16 17 16 17 17 16 16 16 16 16 16 16 16 16 16 15 15 13 13 13 14 14 14 13 13 13 13 13 13
22 23 22 22 21 20 20 20 20 19 19 18 18 17 17 17 17 17 17 17 17 17 17 17 17 17 17 17 17 17 17 16 16 16 16 16 16 16 16 16 16 16 15 15 15 15 14 14 13 15 17 16 16 16 16 16 16 16 16 16 16 16 16 16 16 16 16 16 16 16 16 15 15 14 13 13 13 14 13 13 13 13 13 13 13
23 23 23 22 22 21 21 20 20 19 19 18 18 18 17 17 17 17 17 17 17 17 17 17 17 17 17 17 17 17 17 16 16 16 16 16 16 16 16 16 16 15 15 15 15 15 14 14 13 15 17 16 16 16 16 16 16 16 16 16 16 16 16 16 16 16 16 16 16 16 16 15 15 14 13 13 13 13 13 13 13 13 13 13 13
22 23 23 23 23 22 21 21 20 19 19 18 18 18 17 17 17 16 16 17 17 17 17 17 17 17 17 17 17 16 16 16 16 16 16 16 16 16 16 16 16 15 15 15 15 15 14 14 14 16 17 16 16 16 16 16 16 16 16 16 16 16 16 16 15 15 15 15 15 15 15 15 15 14 13 12 13 13 13 13 13 13 13 13 13
21 22 23 23 23 23 22 21 20 20 19 18 18 18 18 17 16 16 16 16 17 17 17 17 17 16 17 17 16 16 16 16 16 16 16 16 16 16 16 16 16 15 15 15 15 15 14 14 15 15 16 16 16 15 15 16 16 16 16 16 16 16 16 16 16 15 15 15 15 15 15 15 15 14 13 12 13 13 13 13 13 13 13 13 13
20 21 21 22 22 23 22 21 20 20 20 19 18 18 18 17 17 16 16 16 16 17 17 17 16 16 16 16 16 16 16 16 16 16 16 16 16 16 16 16 15 15 15 15 15 15 14 14 14 15 15 15 15 15 15 15 16 16 16 16 16 16 16 16 16 16 15 15 15 15 15 15 15 15 14 13 12 13 13 13 13 13 13 14 13
20 20 21 22 22 22 21 21 21 20 20 19 18 18 18 18 17 17 16 16 16 16 16 17 16 16 16 16 16 16 16 16 16 16 16 16 16 16 16 15 15 15 15 15 15 14 14 14 14 14 15 15 15 15 15 15 16 16 16 16 16 16 16 16 16 16 16 15 15 15 15 15 15 15 14 13 12 13 13 13 13 14 14 14 13
19 20 21 22 22 22 21 21 21 21 20 19 19 18 18 17 17 17 17 16 16 16 16 16 16 16 16 16 16 16 16 16 16 16 16 16 16 16 15 15 15 15 15 15 15 14 14 14 14 14 15 14 14 15 15 15 16 16 16 16 15 15 15 15 16 16 16 15 15 15 15 15 15 15 14 14 13 13 13 13 13 14 14 14 13
18 19 20 21 22 22 22 22 21 21 20 19 19 18 18 18 17 17 17 17 17 17 16 16 16 16 16 16 16 15 16 16 16 16 16 16 16 16 15 15 15 15 15 15 15 14 14 14 14 14 15 14 13 14 14 15 15 15 15 15 15 15 15 15 15 16 16 15 15 15 15 15 15 15 14 14 13 13 13 13 13 14 14 14 13
17 18 18 19 21 21 21 21 21 21 20 19 19 18 18 18 17 17 17 17 17 17 17 17 16 16 17 16 16 15 16 16 16 16 16 16 16 16 15 15 15 15 15 15 14 14 14 14 13 13 14 14 13 13 13 14 14 15 15 15 14 14 15 15 15 15 15 15 15 15 15 15 15 15 14 14 14 13 13 13 13 13 14 14 14
16 17 18 18 19 20 20 20 20 20 20 20 19 19 18 17 17 17 17 17 17 17 17 17 17 17 17 17 16 16 15 16 16 16 15 16 16 16 15 15 15 15 15 14 14 14 14 13 13 12 13 13 13 12 12 13 13 14 14 14 14 14 14 14 15 15 15 15 15 15 15 15 14 14 14 14 13 13 13 13 13 13 13 14 14
15 16 18 18 18 19 20 19 19 19 19 19 19 18 18 17 17 17 17 16 16 17 17 17 17 17 17 16 16 16 16 16 16 16 15 15 15 15 15 15 15 15 14 14 14 14 13 13 12 12 12 12 12 12 12 12 12 13 13 14 14 14 14 14 14 14 15 15 15 15 15 15 14 14 14 13 13 13 13 13 13 13 13 13 14
14 15 16 16 17 18 18 18 18 18 18 18 18 17 17 17 17 16 16 16 16 16 16 16 16 16 17 16 16 16 16 16 16 16 16 15 15 15 15 15 15 15 14 14 14 13 13 13 12 12 11 11 11 11 12 12 12 13 13 13 14 14 14 14 14 14 14 15 15 15 15 15 14 14 14 14 13 13 12 12 13 13 13 13 13
12 13 14 15 16 16 17 17 17 17 17 17 17 17 17 16 16 16 16 16 16 16 16 16 16 16 16 16 16 16 16 16 16 16 16 16 15 15 15 15 15 15 14 14 14 14 13 13 12 12 11 11 11 11 11 11 12 12 13 13 13 13 14 13 13 14 14 15 15 15 15 15 14 14 14 14 13 13 12 12 12 12 13 13 13
11 12 14 14 15 15 16 16 16 16 16 16 16 16 16 16 16 16 16 16 16 16 16 16 16 16 16 16 16 16 16 16 16 16 16 16 15 16 16 15 15 15 14 14 14 14 13 13 12 12 12 11 11 11 11 11 11 12 12 12 12 12 13 13 13 13 14 14 15 15 15 15 14 14 14 14 13 13 12 12 12 12 12 12 13
11 11 12 13 14 14 15 15 15 15 15 15 16 16 16 16 16 16 16 16 15 15 15 15 15 15 15 16 16 16 16 16 16 16 15 15 15 15 15 15 15 14 14 14 14 14 13 13 12 12 12 11 11 12 12 12 11 11 11 11 11 11 12 12 12 12 13 13 14 14 15 15 14 14 14 13 13 13 13 12 12 12 12 12 12
10 11 12 12 13 13 14 14 14 14 14 15 15 15 15 15 15 15 15 15 14 15 15 15 15 15 15 15 15 15 15 15 15 15 15 15 15 15 15 15 14 14 14 14 14 13 13 12 12 12 12 11 11 12 12 12 11 11 11 11 11 11 11 11 11 11 12 12 13 13 14 14 14 14 14 13 13 13 12 12 12 12 12 12 12
10 11 12 12 12 13 13 13 13 14 14 14 14 14 15 14 14 14 14 14 14 14 14 14 14 14 14 14 14 14 14 14 14 14 14 14 14 14 14 14 14 14 14 14 14 14 13 13 12 12 12 11 11 11 11 11 11 10 10 10 10 10 10 10 10 11 11 11 11 11 12 13 14 14 13 13 13 12 12 12 12 12 12 12 12
9 10 11 11 11 12 12 12 12 13 13 13 14 14 14 14 14 14 13 13 13 13 13 13 13 13 13 13 13 13 13 13 13 13 13 13 13 13 13 13 13 13 13 13 13 14 13 13 13 12 11 11 11 11 11 11 10 9 9 9 9 9 9 9 10 10 10 10 10 10 11 12 13 13 13 13 12 12 12 12 12 12 12 12 11
8 8 9 10 10 11 11 11 12 12 12 12 13 13 12 13 13 13 13 13 12 13 12 12 12 12 12 12 12 12 12 12 12 12 12 12 12 12 12 12 12 12 13 13 12 13 12 12 12 11 11 11 11 11 11 10 9 9 8 8 9 9 8 8 9 10 9 9 9 10 11 11 12 12 12 12 12 11 11 11 11 11 11 11 11
7 7 8 9 10 10 10 11 11 12 12 12 12 12 12 12 12 12 12 12 12 12 12 11 11 12 11 11 11 11 11 11 11 11 11 11 11 11 11 11 11 11 11 11 11 11 12 12 11 11 11 11 11 11 11 11 10 9 8 8 8 8 9 9 9 9 9 9 9 9 10 10 10 11 10 11 11 11 11 11 11 11 11 11 11
6 7 7 8 8 9 9 10 10 11 11 11 11 11 12 12 12 12 12 11 11 11 12 11 11 11 11 11 11 11 11 11 11 11 11 10 10 10 10 10 10 10 10 10 10 10 11 11 11 11 11 10 10 10 11 10 10 10 9 8 7 7 10 9 7 9 9 9 9 9 9 9 10 9 9 9 10 10 11 11 11 11 11 11 11
5 6 6 7 7 8 8 9 9 10 10 11 11 11 11 11 11 11 11 11 11 11 11 10 10 10 10 10 10 10 10 10 10 10 10 10 9 9 9 9 9 9 9 9 9 9 10 10 10 10 10 10 10 10 10 10 10 11 10 9 8 8 11 9 7 9 9 8 9 8 8 9 9 8 8 9 9 9 10 10 10 10 11 11 11
5 5 6 6 7 7 8 8 9 9 9 10 10 11 11 11 11 10 10 9 8 8 8 9 9 9 9 9 9 9 9 9 9 9 9 9 9 9 9 9 9 8 8 8 9 9 9 9 9 9 9 10 10 9 9 9 10 10 10 10 10 10 10 9 9 10 9 8 8 8 8 8 8 8 8 8 9 9 9 9 10 10 10 10 10
4 5 5 6 6 7 7 7 8 8 8 9 9 10 10 9 9 9 8 7 7 6 7 8 8 8 9 9 9 9 9 9 8 8 8 8 8 8 8 8 8 8 8 8 8 8 8 9 9 9 9 9 9 8 8 9 9 9 9 10 10 10 9 8 9 10 10 9 8 7 7 7 7 7 7 7 8 8 9 9 9 10 10 10 10
5 5 5 5 6 6 6 7 7 7 7 8 8 9 8 8 8 8 7 7 7 7 7 8 8 8 8 8 8 8 8 8 8 8 8 8 8 8 8 8 8 8 8 8 7 8 8 8 8 8 8 8 8 8 8 9 8 8 9 9 9 9 9 8 8 8 9 10 9 8 7 7 7 6 7 7 7 8 8 9 9 9 9 10 10
5 5 5 5 5 6 6 7 7 6 7 7 8 8 7 7 7 7 6 6 6 6 7 7 7 7 7 7 7 7 7 7 7 7 7 7 7 7 7 7 7 7 7 7 7 7 7 7 7 7 8 8 8 8 8 8 8 9 9 9 9 9 8 8 8 7 7 8 9 9 7 6 6 6 7 7 7 8 8 8 8 8 9 9 10
5 5 5 5 6 6 7 7 6 6 6 6 7 7 7 7 6 6 6 6 6 6 6 6 6 6 6 6 6 7 7 7 7 7 7 7 7 7 7 7 7 7 7 7 7 7 7 6 7 7 7 7 7 7 8 8 8 8 9 9 8 8 8 7 7 7 7 7 7 7 5 5 6 7 9 9 9 8 7 7 7 7 8 9 9
5 5 5 5 6 6 6 6 5 5 6 6 6 6 6 6 6 6 5 5 5 5 5 5 5 5 5 5 6 6 6 6 6 6 6 6 6 6 7 7 7 7 6 6 6 6 6 6 6 6 6 6 6 7 7 7 7 8 8 8 8 8 7 7 8 8 8 7 7 7 6 6 6 6 9 11 10 9 7 7 7 7 8 8 8
Height
815 816 817 818 820 822 824 824 825 826 827 828 829 830 831 831 832 833 833 834 835 836 836 837 838 838 839 839 839 840 840 841 841 842 842 843 843 844 844 844 844 845 845 845 845 845 845 845 845 845 845 845 845 845 844 844 845 845 845 845 845 845 845 845 845 846 845 846 846 846 846 846 846 846 846 846 846 846 846 846 846 846 845 846 846
812 815 816 817 819 820 823 824 825 825 826 827 829 830 831 832 832 833 833 834 835 836 837 837 838 839 839 840 840 840 841 841 842 842 843 843 843 844 844 845 845 845 845 845 846 846 846 846 846 846 846 846 846 845 845 845 845 845 846 846 846 846 846 846 846 846 846 846 846 846 847 847 847 847 847 847 847 847 847 847 846 846 846 846 846
811 814 815 817 818 819 821 823 824 825 826 827 828 829 830 831 832 833 834 835 835 836 837 837 838 839 839 840 840 840 841 841 842 843 843 843 843 844 844 845 845 845 845 846 846 846 846 846 846 846 847 846 846 846 846 846 846 846 846 847 847 847 847 847 847 847 847 847 847 847 847 847 847 847 847 847 847 847 847 847 847 847 847 847 847
811 813 814 817 818 819 820 822 823 825 826 826 827 828 829 830 831 833 834 835 835 836 837 837 838 838 839 839 840 841 841 842 842 843 843 844 844 844 844 845 845 845 845 846 846 846 846 846 846 847 847 847 847 847 847 847 847 847 847 848 848 848 848 848 848 847 847 847 847 848 848 848 848 848 848 848 848 847 847 847 847 847 847 848 848
811 813 814 816 818 819 820 821 822 824 825 826 827 828 829 830 831 832 833 834 835 836 837 837 838 838 839 839 840 841 841 842 842 843 844 844 844 844 845 845 845 845 846 846 846 846 846 846 846 847 847 847 847 847 847 847 848 848 848 848 848 848 848 848 848 848 848 848 848 848 848 848 848 848 848 848 848 848 848 848 848 848 848 848 848
811 812 814 816 818 819 821 822 822 823 824 825 826 827 828 829 830 831 832 833 834 835 836 837 838 839 839 840 840 841 841 842 842 843 843 844 844 845 845 845 845 845 846 846 846 847 846 847 847 847 847 847 847 847 847 848 848 848 848 848 848 849 849 849 848 848 848 848 848 848 849 849 849 849 849 849 849 849 848 848 848 849 849 849 849
811 812 814 815 817 818 820 822 823 824 824 825 825 826 827 828 829 830 831 833 833 834 835 836 837 838 839 840 840 841 841 842 842 843 843 844 844 845 845 845 845 846 846 846 847 847 847 847 847 847 847 847 847 847 847 847 847 847 848 848 848 848 848 848 848 848 848 848 848 849 849 849 849 849 849 849 850 850 849 849 849 849 849 849 849
811 812 813 815 816 818 820 821 823 824 825 825 825 826 826 827 828 830 831 832 833 834 835 836 837 838 839 840 840 841 841 842 843 843 843 844 844 845 845 846 846 846 846 847 847 847 847 847 847 847 847 847 847 847 847 847 847 847 847 847 847 847 848 848 848 848 848 848 848 849 849 849 850 850 850 850 850 850 850 850 850 850 850 850 850
810 812 813 814 815 817 819 820 822 823 825 826 826 827 827 828 828 829 830 831 832 834 834 835 836 838 838 839 840 841 841 842 843 843 843 843 844 845 845 846 846 847 847 847 847 848 848 848 848 847 847 847 847 847 847 847 847 846 846 846 846 846 847 847 847 847 848 848 848 849 849 850 850 850 850 850 850 850 851 851 850 851 851 851 851
810 811 812 813 814 816 818 819 821 822 824 825 826 827 828 829 829 830 830 831 832 833 834 835 836 837 838 839 840 841 841 842 843 843 843 844 844 845 845 846 847 847 847 848 848 848 848 848 848 848 847 847 847 847 847 847 846 846 846 846 846 846 846 846 847 847 847 848 848 849 849 850 850 850 850 851 851 851 851 851 851 851 851 851 851
809 811 812 813 814 815 817 819 820 821 823 823 825 826 827 828 829 830 831 832 832 833 834 835 836 837 838 839 839 840 841 842 842 843 844 844 844 845 846 846 847 847 848 848 849 849 848 848 848 848 847 846 847 847 846 846 846 846 846 846 845 846 846 846 846 847 847 848 848 849 849 850 850 850 851 851 851 851 851 851 851 851 851 851 851
809 810 811 812 813 815 816 818 819 820 821 822 824 824 826 827 828 830 831 832 833 833 834 835 836 837 838 838 839 840 841 841 842 843 844 844 844 845 846 846 847 848 848 848 849 849 849 849 848 848 847 846 846 846 846 846 846 846 846 846 846 846 846 846 846 847 847 848 848 849 849 850 850 851 851 851 851 851 851 851 851 851 852 852 852
808 809 810 812 812 814 815 817 818 819 820 821 823 823 825 826 827 828 829 831 832 833 834 835 836 837 837 838 839 840 840 841 842 842 843 844 844 845 845 846 847 848 848 848 848 849 849 849 849 848 847 846 846 846 846 846 846 846 846 846 846 846 846 846 847 847 847 848 848 849 849 850 850 851 851 852 852 852 852 852 852 852 852 852 852
807 808 810 810 812 813 814 816 817 818 820 821 822 823 824 824 825 827 828 829 831 832 833 835 836 837 837 838 839 839 840 841 842 842 843 844 844 845 845 846 847 847 847 848 848 848 849 849 848 848 847 846 846 846 846 846 846 846 846 846 846 846 846 846 847 847 848 848 849 849 849 850 850 851 852 852 852 852 852 852 852 852 852 852 852
807 808 809 810 811 812 813 815 816 817 819 820 821 822 823 824 825 825 827 828 829 831 832 833 834 836 837 838 838 839 840 840 841 842 843 843 844 845 846 846 847 847 847 848 848 848 849 849 849 848 847 846 847 847 846 847 846 847 846 846 847 846 846 846 846 847 847 848 849 849 850 850 851 851 852 852 853 853 852 852 852 852 852 852 853
808 808 809 809 810 811 813 814 815 816 817 819 820 821 822 823 824 825 826 827 828 829 831 832 833 834 836 837 837 838 839 840 841 842 843 843 844 845 846 846 847 847 847 848 848 848 849 849 849 847 847 847 847 847 847 847 847 847 847 847 847 847 846 846 846 847 847 848 848 849 850 850 850 851 852 852 852 853 852 852 852 852 852 853 853
808 808 808 809 810 811 812 813 814 816 816 818 818 820 821 822 823 824 826 827 828 829 829 831 832 833 834 835 836 837 838 839 840 841 842 843 844 844 845 846 846 847 847 848 848 849 849 849 848 847 847 847 848 848 847 848 847 847 847 847 847 847 847 847 847 847 847 848 848 849 849 850 850 851 852 852 852 852 852 852 852 852 852 853 852
808 808 809 809 810 811 812 813 814 815 816 816 818 819 820 821 822 823 825 826 827 828 829 830 831 832 833 834 835 836 837 838 839 840 841 842 843 844 844 845 845 846 846 847 848 848 849 848 847 847 848 848 848 848 848 848 848 848 847 848 847 847 847 847 847 847 847 848 848 848 849 850 850 851 851 852 852 852 852 852 852 852 852 852 852
808 808 808 809 809 810 811 812 812 813 814 815 816 817 819 820 821 822 823 824 826 827 828 829 830 831 832 833 834 835 836 837 838 839 840 841 842 842 843 844 844 844 845 846 847 847 847 847 847 847 847 848 848 848 848 848 848 848 848 848 848 847 847 848 848 848 848 848 848 848 848 849 849 850 850 851 851 851 851 851 851 851 852 852 852
807 807 807 808 808 809 809 810 811 812 813 814 815 816 817 818 820 821 822 823 824 826 827 828 829 830 831 832 833 834 835 836 837 838 838 840 840 841 842 843 843 843 844 845 845 846 846 846 846 846 847 847 848 848 848 848 848 848 848 848 848 848 848 848 848 848 848 848 848 848 848 849 849 849 850 850 850 851 851 851 851 851 851 851 851
806 806 806 807 807 808 808 809 810 811 812 813 814 815 816 817 819 820 821 822 823 825 826 827 828 829 830 831 832 833 834 835 836 837 838 839 839 840 841 842 842 843 843 844 844 845 845 845 845 845 846 847 847 848 848 848 848 848 848 848 848 848 848 848 848 848 848 848 848 848 848 848 849 849 849 849 849 850 850 850 850 850 851 851 851
804 804 805 805 806 806 807 808 809 810 811 812 813 814 815 816 818 819 820 821 823 824 825 826 827 828 830 830 831 832 833 834 835 836 837 838 839 840 841 841 842 842 843 843 844 844 844 844 844 844 845 846 846 847 847 847 848 848 848 848 848 848 848 848 848 848 848 848 848 848 848 848 849 849 849 849 849 849 849 849 849 850 850 850 850
802 802 802 803 804 805 805 806 807 808 810 811 812 813 814 815 816 818 819 820 822 823 824 826 827 828 829 830 831 832 833 834 834 835 836 837 838 839 840 841 842 842 842 843 843 843 844 844 843 843 844 845 845 846 846 847 847 847 848 848 848 848 848 848 848 848 848 848 848 848 848 848 849 849 849 849 848 848 848 849 849 849 850 850 850
799 800 800 801 801 802 803 803 804 806 807 808 810 811 812 813 815 816 818 819 820 822 823 824 826 827 828 829 830 831 832 833 834 835 836 837 838 839 840 841 841 842 842 842 843 843 843 843 843 842 843 844 844 845 845 846 847 847 847 847 847 847 848 848 848 848 848 848 848 848 848 848 849 849 849 849 849 848 848 848 849 849 849 849 850
797 799 799 799 799 799 800 801 802 804 805 806 807 808 810 812 813 815 816 818 819 820 822 823 824 826 827 828 829 830 831 833 834 834 835 836 837 838 839 840 841 841 841 842 842 843 843 843 842 842 843 844 844 844 845 845 846 846 846 846 847 847 847 847 847 847 848 848 848 848 848 848 848 849 849 849 849 848 848 848 849 849 849 849 849
796 796 795 796 797 798 798 800 801 802 804 804 806 807 809 811 812 813 815 816 818 819 820 822 823 824 826 827 828 829 830 831 832 833 834 835 836 837 838 839 839 840 841 841 841 842 842 842 841 842 843 843 843 844 844 845 845 846 846 846 846 846 846 847 847 847 847 847 847 847 848 848 848 848 848 849 849 848 848 849 849 849 849 849 849
795 794 794 795 795 796 797 798 800 801 802 803 805 806 807 809 810 812 813 815 816 817 819 820 821 822 824 825 827 828 829 830 831 832 833 833 834 835 836 837 838 839 840 840 841 841 841 841 841 841 842 843 843 843 844 844 845 845 845 845 845 845 846 846 846 846 846 846 846 846 847 847 847 847 847 848 848 848 848 849 849 849 849 849 849
795 795 795 795 795 795 796 796 797 799 800 802 803 804 805 807 808 810 811 813 814 816 817 818 820 821 822 824 825 827 828 829 830 830 831 832 833 834 835 836 836 838 838 839 840 840 840 840 840 841 842 842 842 843 843 844 844 844 844 844 845 845 845 846 846 846 846 846 846 846 846 846 846 846 846 847 848 848 848 848 849 849 849 849 849
794 794 794 794 794 795 795 796 796 797 798 800 801 802 804 805 806 808 809 811 813 814 816 817 818 819 821 822 823 825 826 827 828 829 830 831 833 833 834 835 835 836 837 838 839 839 839 839 840 840 841 842 842 842 843 843 843 844 844 844 844 844 844 845 845 845 846 845 845 845 845 845 845 845 846 846 847 847 848 848 848 849 849 848 848
793 793 793 792 792 793 794 795 795 796 797 798 800 801 802 803 804 806 807 809 811 813 814 816 817 818 820 821 822 823 824 825 826 828 829 830 831 832 833 834 835 836 836 837 838 838 839 839 839 840 841 841 841 842 842 842 843 843 843 843 844 844 844 844 845 845 845 845 845 845 845 845 845 845 845 845 845 846 847 847 848 848 848 848 848
793 792 791 791 791 791 792 794 795 796 797 797 798 799 800 801 803 804 806 808 810 811 813 814 816 817 818 819 821 822 823 824 825 827 828 829 830 831 832 833 834 835 836 836 837 838 838 839 839 839 840 841 841 841 841 842 842 842 843 843 843 844 844 844 844 844 844 844 845 845 845 844 844 844 844 844 844 845 845 846 847 847 848 848 848
793 792 791 791 790 791 792 793 794 795 796 797 798 799 800 801 802 804 805 807 809 810 812 813 814 816 817 818 819 821 822 823 824 826 826 827 828 830 831 831 833 834 835 836 836 837 837 838 839 839 840 841 841 841 841 841 841 842 842 842 843 843 843 843 844 844 844 844 844 844 844 844 844 844 844 844 844 844 844 844 845 846 847 847 847
794 793 792 791 790 790 791 792 794 795 795 796 797 798 799 801 802 803 804 806 808 809 811 812 813 815 816 817 818 819 821 822 823 824 825 826 827 828 829 830 831 832 834 835 835 836 837 837 838 839 839 840 840 840 840 840 840 841 841 841 842 842 842 843 843 843 843 843 843 843 843 843 843 843 843 843 843 843 843 843 844 845 845 846 846
796 794 792 791 790 790 791 792 793 795 796 797 798 799 800 801 802 803 804 805 807 808 810 811 812 814 815 816 817 818 820 820 821 823 824 825 826 827 827 828 830 831 832 833 834 835 835 836 837 838 839 839 839 839 839 839 839 840 840 840 841 841 841 841 842 842 842 843 843 843 843 842 842 842 842 842 843 843 843 843 843 844 844 844 845
798 796 794 793 792 791 791 792 793 795 796 797 798 799 800 801 802 803 804 806 807 808 809 810 811 813 814 815 816 817 819 819 820 821 822 823 824 825 826 827 828 829 830 831 832 833 834 835 836 837 838 838 839 839 839 839 839 839 839 839 839 840 840 840 840 841 841 841 841 841 841 841 841 841 841 842 842 842 842 842 843 843 843 843 844
799 798 797 795 794 793 793 793 794 795 796 797 798 800 801 802 803 804 805 806 807 808 809 810 811 812 813 814 815 816 817 818 819 820 821 822 822 823 824 826 827 828 829 830 831 831 832 833 834 835 836 837 838 838 839 839 839 839 839 839 839 839 838 838 838 839 839 839 839 839 840 840 840 840 840 840 840 841 841 841 842 842 842 842 843
802 800 799 797 796 796 795 794 795 795 796 798 799 800 801 802 803 805 806 807 807 808 809 810 811 812 813 814 814 815 816 817 818 819 820 820 821 822 823 824 825 826 827 828 829 830 831 831 832 833 834 835 836 837 838 838 838 839 839 838 838 838 837 837 838 838 837 837 837 837 837 838 838 838 838 838 839 839 839 840 840 840 841 841 842
803 802 800 800 799 798 797 797 797 797 798 799 799 800 801 802 804 805 806 807 808 809 810 810 811 812 813 814 814 815 816 816 817 818 819 819 820 821 822 823 824 825 826 827 828 829 829 830 831 832 832 833 834 835 836 836 837 838 839 838 838 837 837 837 838 837 836 835 835 835 835 835 835 836 836 836 837 837 838 838 838 839 839 840 840
804 803 802 801 800 800 800 799 799 799 800 800 801 802 802 803 804 805 806 807 808 809 810 811 812 813 813 814 814 815 816 816 817 818 818 819 820 821 822 822 823 824 825 826 827 828 829 829 830 831 831 832 832 833 834 835 837 837 838 837 837 837 836 837 836 836 835 835 834 834 834 833 834 834 834 834 835 835 835 836 836 837 837 838 838
805 804 802 802 802 802 801 801 802 802 802 802 802 803 804 805 806 806 807 808 809 810 811 812 812 813 814 814 815 816 816 817 817 818 818 819 820 821 821 822 822 823 824 825 825 826 827 828 828 829 830 831 832 833 834 835 835 836 837 837 836 836 835 835 834 834 834 833 833 833 833 833 832 832 832 832 833 833 833 834 834 835 835 835 836
807 806 804 804 804 804 803 803 804 804 804 804 804 805 805 806 807 808 809 809 810 811 811 812 813 814 815 815 816 817 817 818 818 818 819 820 820 821 821 821 822 823 823 823 824 825 826 826 827 828 829 830 831 832 833 834 835 836 836 836 835 835 833 833 832 832 831 831 832 832 832 831 831 830 830 831 831 831 831 832 832 832 833 833 833
810 808 807 807 807 806 805 806 807 806 806 807 807 807 808 809 809 810 811 811 811 811 812 813 814 815 815 816 817 817 818 818 818 819 819 819 820 821 821 822 822 823 823 823 824 824 825 826 827 828 829 829 830 830 831 833 834 834 835 835 834 833 832 831 830 828 829 829 830 830 829 829 829 829 829 829 829 829 830 830 830 830 831 831 831
812 811 810 810 809 809 809 809 809 809 809 810 809 810 810 811 812 812 813 813 813 813 813 814 814 815 816 817 818 818 818 818 819 819 819 819 820 820 821 822 823 823 823 823 824 824 825 825 826 827 828 828 829 830 830 831 832 834 836 835 834 833 830 828 826 825 826 827 827 827 827 827 827 827 827 827 827 827 828 828 828 828 828 829 829
814 813 813 812 813 812 812 812 811 811 811 812 812 812 812 813 813 814 815 815 816 815 814 814 814 815 816 817 818 819 819 819 819 819 819 820 820 820 821 821 822 823 823 824 824 824 825 825 826 827 827 828 828 829 829 830 830 832 834 835 836 835 829 825 824 823 824 824 824 824 825 825 825 826 825 825 825 826 826 826 826 826 826 826 827
817 817 816 816 816 816 815 815 814 814 814 814 814 814 814 814 815 816 817 818 818 817 816 816 816 815 816 817 818 819 820 820 820 820 820 820 820 820 821 821 822 823 823 824 824 825 825 826 826 827 827 827 828 828 828 829 829 830 831 831 833 832 827 825 824 821 821 821 821 822 822 822 823 823 823 823 823 824 824 824 824 825 824 824 824
821 821 820 820 819 819 818 818 817 817 817 817 817 817 816 816 816 817 819 821 822 822 821 820 819 818 817 818 819 819 820 821 821 821 821 821 821 821 821 821 822 823 823 823 824 824 825 825 826 826 827 827 828 828 828 828 829 828 829 828 828 827 826 826 825 821 819 818 819 819 819 820 821 821 821 821 821 821 822 822 822 822 823 822 822
826 825 823 822 822 822 821 820 820 820 820 820 820 819 819 819 819 820 822 824 825 826 826 825 823 821 820 819 819 820 820 821 822 822 822 821 821 821 821 822 822 823 823 823 823 824 824 824 825 825 826 827 827 827 827 828 828 827 827 827 826 825 825 826 826 823 820 817 817 817 817 818 819 819 819 819 819 819 819 819 819 819 820 820 820
830 828 825 825 825 825 824 822 822 822 823 823 822 822 821 822 823 823 825 826 827 828 828 827 826 824 823 821 821 821 821 822 823 823 823 822 821 821 821 822 822 823 823 823 823 823 824 824 824 824 824 825 825 825 826 826 826 826 826 826 825 825 825 825 825 825 823 819 816 816 816 817 817 817 816 816 816 816 816 816 816 816 817 817 818
832 830 829 828 828 827 826 825 824 825 825 825 825 824 824 825 825 826 827 828 829 830 829 829 828 826 824 823 823 822 822 823 824 824 824 823 822 821 822 822 822 822 823 823 823 823 823 823 823 824 823 824 824 824 824 824 824 824 824 824 823 823 823 824 824 824 824 821 817 816 816 815 815 813 813 812 812 812 812 813 814 814 814 814 814
834 833 832 831 830 830 829 827 827 828 828 828 827 827 827 826 827 827 829 830 831 831 830 830 829 828 826 825 824 824 824 824 824 825 825 825 824 823 822 822 822 822 822 822 822 822 822 823 823 823 822 822 822 822 822 822 822 822 822 822 821 821 822 821 822 822 822 820 817 815 815 814 812 810 809 809 808 808 808 810 811 811 811 811 811
836 835 834 833 833 833 832 831 831 831 831 831 830 829 829 828 828 829 830 831 832 832 832 831 831 829 828 827 826 826 826 826 826 826 826 826 825 824 823 823 822 822 822 821 821 821 821 822 822 822 821 821 821 821 821 821 820 820 820 819 819 819 819 818 819 819 819 818 816 813 812 812 810 807 806 806 805 805 805 806 806 807 807 807 808
Wind_Speed
22 20 25 27 26 25 21 21 21 21 20 18 18 17 17 17 17 17 16 16 14 13 12 11 11 10 10 10 10 10 10 11 12 12 12 12 13 12 11 10 9 7 7 8 8 8 8 9 10 10 11 11 11 11 11 12 13 14 14 13 11 10 9 9 9 10 10 10 9 9 9 9 10 9 8 8 8 8 8 8 9 10 11 10 9
23 22 26 28 27 27 23 22 22 21 21 20 19 18 17 17 17 17 17 15 14 13 13 12 11 10 10 10 10 10 9 11 11 11 12 11 12 12 11 10 9 7 6 7 7 7 7 8 9 9 9 9 10 10 10 10 11 12 12 12 11 10 9 9 9 9 9 9 8 8 8 8 8 8 7 7 7 7 7 8 8 9 11 10 10
21 23 26 29 28 28 26 23 22 21 21 21 21 20 19 18 17 17 17 15 14 13 13 12 11 10 10 10 10 10 9 11 11 11 11 10 11 12 10 9 8 8 7 7 8 7 7 7 8 8 8 8 9 9 9 9 9 9 9 10 10 9 9 9 8 8 8 8 7 7 7 6 6 6 5 6 6 7 7 7 8 9 10 10 10
20 23 26 30 29 28 27 25 23 23 22 22 22 22 21 20 19 18 17 15 14 13 13 12 11 11 10 11 11 10 10 10 11 11 10 9 11 11 9 8 8 8 8 7 7 7 7 7 7 6 7 7 7 7 8 8 7 6 6 6 8 8 7 7 8 7 6 6 6 5 5 5 5 4 4 5 5 6 7 7 9 9 10 10 10
18 21 27 30 30 29 28 27 25 25 23 23 23 22 22 21 20 19 18 16 14 13 13 12 11 11 10 11 11 11 10 11 11 11 9 9 10 10 9 8 8 8 8 8 8 7 7 6 6 6 6 6 7 6 6 6 5 3 2 2 4 6 6 6 7 5 4 3 4 5 5 5 4 4 4 4 5 6 6 7 8 9 9 9 9
18 20 26 30 30 29 28 27 26 26 25 25 24 23 23 21 21 19 18 17 15 14 14 13 12 12 10 10 11 12 11 11 11 10 9 9 10 9 9 8 7 8 8 8 8 7 5 5 5 5 5 6 6 5 4 3 1 1 1 1 3 5 6 7 7 5 3 2 4 6 6 5 4 4 5 4 5 5 6 7 7 8 8 8 8
17 19 25 29 30 29 28 28 26 26 25 26 25 24 23 22 21 20 19 17 16 16 15 15 13 13 12 10 11 11 11 10 10 9 8 9 10 9 9 8 7 8 7 8 8 7 5 3 3 3 6 6 6 5 3 2 3 3 3 3 4 6 8 8 7 6 4 4 6 8 7 5 3 3 4 4 5 5 5 6 6 7 8 7 6
17 18 23 28 30 30 28 28 27 26 23 25 25 24 24 23 22 20 20 18 17 17 16 16 14 14 13 12 11 10 10 10 9 8 8 8 9 9 9 9 8 8 8 8 7 6 4 2 2 2 5 7 6 5 3 2 3 4 5 5 5 7 9 10 9 7 6 6 8 8 7 5 3 3 3 3 5 4 4 5 5 6 6 6 5
18 19 21 26 30 30 29 28 27 26 23 24 24 23 23 22 22 21 20 19 18 17 17 16 15 15 15 13 12 11 10 10 10 8 8 7 8 9 10 9 8 8 8 7 6 5 3 2 1 1 3 6 6 4 3 3 3 4 4 5 5 6 9 11 10 8 7 8 9 8 7 5 4 4 3 3 3 3 4 3 2 3 4 4 4
18 19 20 24 28 30 29 28 27 27 23 23 25 24 22 20 21 20 19 20 18 18 18 17 16 15 15 15 13 12 11 11 11 10 9 8 8 9 10 9 9 8 8 6 6 4 2 1 1 1 2 6 5 3 2 2 2 2 3 3 4 5 8 9 10 9 8 8 9 9 8 6 5 5 3 2 2 2 2 2 1 2 2 3 3
18 18 19 22 27 30 29 28 28 27 24 24 25 24 22 19 19 19 18 19 18 18 18 18 17 16 16 15 14 13 12 12 12 11 10 9 9 10 10 11 10 9 8 6 5 3 0 1 0 0 2 4 4 2 1 2 2 3 3 3 4 6 8 9 10 10 8 8 9 10 10 8 7 5 3 1 1 1 2 2 0 1 1 3 4
18 18 18 20 25 29 29 29 28 28 26 25 26 25 23 20 20 19 18 18 17 17 18 18 17 16 15 15 15 13 13 13 13 13 11 10 10 11 10 11 10 9 8 7 6 4 2 2 1 1 3 3 1 1 2 4 4 4 4 3 4 6 8 9 9 10 9 8 10 11 11 9 7 5 3 2 2 2 2 2 2 2 4 5 3
17 18 17 18 23 27 29 29 28 28 27 25 26 25 24 21 21 20 20 19 18 18 17 17 17 16 15 15 15 14 14 14 14 14 13 12 10 10 11 11 11 10 9 9 8 6 4 3 3 4 5 3 1 2 5 5 5 5 4 4 4 5 8 9 9 9 9 9 10 11 11 10 9 6 5 4 3 3 2 2 3 4 4 3 3
16 18 17 18 21 26 28 29 29 28 28 26 26 26 25 22 21 21 21 21 20 19 18 18 18 16 16 16 15 15 15 15 15 14 14 13 11 11 12 11 11 11 10 10 9 8 5 4 5 5 6 4 1 4 6 6 6 5 5 5 5 5 7 9 10 10 9 10 10 11 11 10 9 7 5 4 3 2 2 3 3 3 3 3 3
15 17 17 18 19 24 27 28 29 29 28 27 26 26 25 23 22 22 22 22 21 20 20 20 20 18 17 16 16 16 15 15 15 15 15 14 12 11 11 10 10 10 10 9 8 7 7 7 5 6 5 3 3 5 6 6 6 6 6 6 6 6 7 9 10 10 10 10 10 10 10 10 9 7 5 4 3 3 2 2 2 2 3 3 2
15 15 16 18 19 21 25 28 29 29 29 28 27 27 26 24 23 22 22 22 22 22 21 21 21 20 18 17 17 16 15 16 16 16 16 15 13 12 11 10 10 9 9 8 7 6 7 7 7 8 5 2 4 6 6 6 6 6 5 5 5 6 7 8 9 9 10 10 10 10 9 9 9 8 5 4 4 3 3 2 2 2 2 2 2
17 16 16 18 19 21 23 26 28 29 29 29 28 27 27 26 24 23 23 22 22 22 22 21 22 21 20 19 19 18 16 17 17 16 16 15 13 12 11 10 9 8 8 9 8 7 7 7 10 10 5 2 4 6 6 6 6 6 5 5 5 5 6 7 7 8 8 8 9 9 9 9 9 9 6 4 4 3 3 3 3 2 2 3 4
18 18 18 18 19 21 22 24 27 29 30 30 29 28 28 27 26 25 24 23 22 22 22 21 21 22 21 21 20 19 17 18 19 17 16 16 15 13 12 10 9 7 6 9 10 9 9 10 12 10 6 3 5 6 6 7 6 6 5 5 5 5 6 6 6 7 6 6 7 8 9 10 9 9 6 5 4 3 3 3 3 3 4 4 5
18 20 19 19 20 21 23 24 26 28 30 31 31 30 29 28 27 26 25 25 23 22 22 22 22 22 22 22 21 20 18 19 20 19 17 17 16 14 13 11 9 7 6 10 11 10 11 12 13 10 7 5 6 7 7 7 7 6 5 5 5 5 5 6 5 6 5 5 5 6 8 9 9 9 7 5 4 3 4 4 4 5 4 3 4
18 20 21 21 21 22 23 24 26 28 30 31 32 31 30 29 28 27 27 26 25 23 23 23 22 22 22 23 22 21 20 19 21 21 19 18 17 15 13 11 9 8 6 10 12 11 11 13 13 11 8 7 7 8 8 8 7 6 5 5 4 4 4 4 4 4 4 4 5 6 7 8 8 8 7 6 5 5 6 5 5 4 4 4 3
19 20 21 22 22 23 24 25 27 28 30 31 32 32 31 30 30 28 28 27 26 25 24 23 23 23 23 23 23 22 21 19 21 22 21 19 17 16 14 12 10 9 8 10 12 12 11 13 12 12 10 8 8 8 8 8 7 6 5 5 5 4 4 4 3 3 3 4 4 5 7 7 7 7 6 6 6 6 6 5 5 4 4 4 3
20 21 22 23 24 24 24 25 26 28 29 31 32 32 31 31 30 30 29 28 27 26 25 24 24 23 23 24 24 24 22 20 21 23 22 20 18 17 15 13 11 10 10 10 12 13 13 12 10 12 12 9 9 9 9 8 7 7 6 6 6 5 5 4 4 4 4 5 4 6 7 7 6 5 5 4 4 5 4 4 4 4 4 3 3
21 22 22 23 24 25 25 26 26 27 29 31 32 32 32 31 31 31 30 30 29 28 27 25 24 24 24 24 24 24 23 21 22 23 23 22 19 17 15 14 13 12 11 11 13 14 15 13 10 12 13 11 11 11 10 9 9 8 8 8 7 6 5 5 5 5 5 5 5 6 7 8 7 5 4 4 4 5 4 4 4 4 4 3 3
22 21 21 22 24 25 26 27 27 27 29 31 32 33 32 32 32 32 32 31 30 29 28 27 25 24 24 24 24 24 23 22 23 24 23 22 20 17 16 15 15 14 13 12 14 15 15 15 13 14 14 13 12 12 12 11 10 10 9 8 7 7 6 5 6 6 5 6 6 7 7 8 8 6 4 4 4 5 5 4 5 5 4 4 3
21 19 20 22 24 25 26 26 27 27 28 30 32 33 32 32 32 32 33 32 32 31 30 28 27 26 25 25 25 24 24 23 24 24 24 23 21 19 18 18 17 16 15 14 15 16 16 16 17 17 15 14 14 13 12 12 11 10 10 8 8 7 6 5 5 6 5 6 6 6 7 8 8 8 5 4 4 5 6 5 5 5 4 4 4
21 21 21 21 22 24 25 25 26 27 28 29 30 32 32 32 32 32 32 33 32 32 31 30 29 27 26 26 25 24 24 24 25 25 25 24 22 21 21 20 19 18 17 16 16 17 19 20 20 18 15 15 15 13 13 13 11 10 10 8 7 6 5 5 5 5 5 5 5 6 7 7 8 8 6 5 5 5 5 5 5 5 5 4 4
21 22 21 19 20 21 24 26 26 26 27 28 29 30 31 32 32 31 31 32 33 32 32 31 30 29 28 27 26 25 25 26 27 26 26 25 24 23 22 22 21 20 19 18 18 19 20 22 22 19 17 17 16 15 14 13 13 11 10 8 7 6 5 5 5 5 5 4 5 5 6 7 8 8 7 6 6 5 5 6 6 5 5 5 4
17 19 19 19 20 20 23 25 26 26 26 27 28 29 30 31 31 31 31 32 32 33 33 32 31 30 29 28 27 26 26 27 28 27 27 26 25 24 23 23 22 21 20 20 20 20 22 23 23 22 19 18 17 16 15 15 13 12 10 9 8 7 6 6 6 6 5 5 5 5 6 6 7 8 7 6 6 6 6 6 7 6 6 6 6
6 10 15 17 18 19 21 24 25 25 26 26 27 28 29 29 30 30 30 31 32 33 33 32 31 30 30 29 28 28 28 29 29 29 28 27 26 25 25 24 23 22 22 22 22 22 23 24 24 24 21 19 18 17 16 15 14 13 11 10 9 8 8 7 7 7 7 6 6 6 6 6 7 8 8 7 7 7 7 7 7 7 6 6 7
10 6 7 10 12 15 18 21 23 23 25 26 26 27 28 29 29 29 29 30 31 32 32 31 31 30 30 30 29 29 29 30 30 30 29 28 27 26 26 25 24 23 23 23 23 22 23 25 25 25 22 20 18 17 17 16 15 13 12 11 10 9 9 9 9 8 8 8 7 7 6 7 7 8 9 9 9 8 8 8 8 8 7 7 7
15 12 7 3 6 9 12 15 18 21 24 25 25 26 27 28 28 28 28 29 29 30 30 30 30 30 30 30 29 29 30 30 30 30 29 29 28 27 27 26 25 25 24 23 23 23 24 25 26 25 23 21 19 17 17 17 16 15 14 13 12 11 11 11 10 10 10 9 9 8 7 7 8 9 10 11 11 11 11 10 9 9 9 8 7
18 16 13 6 2 5 7 11 14 18 21 22 23 24 25 26 26 27 27 27 27 28 28 28 28 28 28 28 28 29 30 30 30 30 29 29 28 27 27 27 26 26 24 24 23 23 23 25 26 26 24 22 19 18 18 18 17 17 16 15 14 13 13 12 12 11 11 10 9 9 9 9 9 10 11 12 13 14 14 14 13 11 10 10 8
19 17 14 11 5 1 5 9 13 16 18 19 20 21 23 24 24 25 25 26 26 26 27 26 26 26 26 26 26 27 29 30 30 30 29 29 29 28 28 28 27 26 25 24 23 23 24 25 26 26 25 23 22 21 21 21 20 19 18 17 16 16 15 14 14 13 12 12 11 11 10 10 10 11 12 13 14 14 15 16 15 14 11 11 12
19 18 16 15 12 6 0 6 10 14 15 16 18 19 20 21 21 22 22 22 23 24 25 25 25 24 24 25 25 26 27 29 30 30 29 30 30 29 28 28 27 26 25 24 23 23 24 26 26 26 25 24 23 23 23 23 22 21 20 19 18 17 17 16 15 14 14 13 13 13 12 12 12 12 13 14 15 15 16 16 16 16 14 14 16
20 20 19 18 16 13 8 2 4 9 12 14 15 16 16 17 18 18 18 18 19 20 21 22 23 23 24 24 25 25 26 27 29 30 30 30 30 30 29 28 27 26 25 24 23 23 24 25 26 25 25 24 23 22 24 24 23 22 22 21 20 19 19 18 17 16 16 16 16 15 14 13 13 13 13 14 16 16 17 16 16 17 17 16 18
22 21 20 19 18 17 14 11 7 2 3 7 9 10 11 11 12 12 12 13 14 16 17 18 20 21 22 23 24 25 25 26 28 29 30 30 30 30 30 28 27 27 25 24 23 23 24 24 25 25 25 24 23 22 24 25 24 23 22 22 21 21 21 20 19 18 17 18 18 18 16 15 15 14 14 15 16 17 17 17 16 18 19 17 18
24 23 22 21 21 20 17 16 15 12 8 4 2 3 4 5 6 6 6 6 9 11 13 13 14 16 17 18 20 22 24 26 28 29 30 30 30 30 30 29 28 27 26 24 23 24 24 25 25 25 25 24 24 24 24 25 24 24 23 22 22 22 22 21 19 19 20 21 21 20 19 18 17 15 15 16 16 17 18 18 17 18 19 18 18
25 25 25 25 24 23 21 20 19 17 15 12 10 8 7 6 6 5 4 3 3 4 6 7 8 10 11 12 14 16 20 23 25 27 28 28 28 29 29 28 27 27 25 24 24 24 24 25 25 25 25 25 25 25 25 26 25 24 23 23 22 22 22 21 20 20 21 22 22 22 21 20 18 17 16 17 17 18 18 19 19 19 20 19 19
26 26 26 26 26 25 23 22 21 19 17 15 14 13 13 13 12 12 11 10 8 6 4 2 1 2 4 5 7 10 13 17 20 23 24 24 25 26 27 27 26 26 25 25 24 24 25 25 26 26 26 26 26 26 25 25 24 23 23 22 22 22 22 20 21 22 22 23 23 22 22 21 20 19 19 18 18 18 19 19 20 21 21 21 21
27 27 27 27 27 26 24 24 22 19 17 15 14 13 13 13 12 13 13 13 11 10 9 8 7 6 5 5 3 3 6 9 13 15 17 18 20 22 24 25 25 25 25 26 26 26 26 27 28 27 27 26 26 24 23 23 23 21 21 21 20 20 21 22 22 22 23 23 23 22 22 22 22 22 22 20 19 19 20 20 21 22 23 23 23
28 28 28 28 27 26 26 26 23 20 19 19 17 15 14 12 12 13 13 13 12 11 12 11 11 10 9 8 8 6 4 3 4 6 8 10 13 16 19 21 22 23 25 27 27 28 28 28 28 27 27 26 25 24 23 22 20 16 14 16 19 20 20 21 22 24 25 23 22 22 23 23 24 25 23 22 21 21 21 21 22 22 23 24 25
28 29 29 28 27 27 26 25 23 21 21 21 19 19 19 16 15 15 14 13 13 13 14 14 13 11 10 10 9 7 6 6 6 6 7 7 7 9 12 16 19 21 24 25 27 27 27 28 28 26 25 26 26 25 24 21 17 15 11 8 12 17 19 21 24 26 25 23 23 24 25 26 26 26 25 24 23 23 22 22 22 23 24 25 26
28 29 29 28 28 27 26 25 23 22 21 19 19 20 19 17 17 16 15 15 16 15 15 15 14 12 12 11 9 8 6 5 5 6 7 9 9 9 9 11 14 17 21 23 24 25 26 27 27 26 25 24 24 23 25 24 20 15 8 4 5 6 11 18 26 28 26 25 26 26 26 27 28 27 26 26 26 25 24 23 24 24 25 25 26
29 29 28 28 28 27 26 25 24 23 21 19 19 19 18 17 17 16 15 15 16 14 14 15 14 14 14 13 12 11 9 7 6 6 6 7 9 9 10 10 10 12 15 18 20 21 23 25 26 27 25 22 22 23 25 26 25 18 7 2 1 0 5 9 16 25 28 28 28 28 28 28 29 28 27 28 27 27 26 25 25 25 26 26 26
28 28 28 28 27 27 26 25 25 24 22 20 19 17 17 17 16 16 15 15 16 16 16 17 16 16 16 15 15 14 13 11 9 8 7 7 7 8 9 10 10 10 10 12 16 19 20 22 23 25 25 23 22 23 24 25 29 28 17 5 1 1 4 3 4 12 21 28 31 29 30 30 29 29 28 29 28 28 27 28 27 27 27 28 27
27 27 28 28 27 27 26 25 25 24 23 22 19 17 18 18 18 19 19 20 20 21 20 19 17 16 15 14 14 14 14 15 14 13 12 10 9 8 9 10 10 11 11 10 10 13 17 19 21 23 25 25 23 20 21 24 28 33 30 20 11 6 3 1 1 4 9 20 28 30 30 31 30 30 29 30 30 30 30 29 29 29 28 29 29
24 26 28 28 28 28 27 27 27 26 24 22 20 20 21 21 22 23 22 22 21 20 20 19 18 16 14 13 13 12 11 12 12 12 13 13 12 11 10 10 10 11 11 11 10 10 12 16 19 21 23 24 24 21 21 23 24 29 33 33 27 20 12 6 3 3 5 8 18 27 30 30 30 30 31 33 32 32 32 31 31 31 31 30 30
23 26 28 29 29 29 29 28 28 27 25 23 22 22 23 23 22 22 22 21 20 19 18 17 16 15 15 16 15 14 12 11 10 10 10 11 11 12 12 11 11 11 12 12 11 11 11 12 15 18 20 22 24 24 24 24 23 24 29 34 34 32 27 19 12 7 4 4 7 15 24 29 30 31 32 34 35 34 34 34 33 33 32 32 32
24 26 27 27 28 28 28 29 29 28 26 25 24 24 24 23 23 23 23 22 20 19 17 16 16 15 16 17 16 15 14 13 12 12 11 11 11 10 10 11 12 12 13 13 13 13 12 12 13 15 16 18 21 23 25 25 25 25 26 28 30 31 31 29 24 16 9 7 5 4 12 19 24 31 36 36 36 37 37 36 35 34 33 33 33
23 24 25 26 27 27 28 29 29 28 27 26 26 26 26 26 26 26 25 24 22 21 20 21 20 19 19 20 18 17 16 14 14 13 13 12 12 11 10 10 10 11 12 13 14 14 14 14 14 15 16 16 18 19 22 24 26 27 27 25 24 23 22 21 22 21 15 11 9 6 9 12 13 23 34 38 40 40 39 38 36 36 36 35 35
23 24 25 26 26 27 27 29 28 27 27 27 27 28 28 29 29 29 28 28 27 26 27 27 26 25 26 25 24 22 21 19 18 17 16 15 14 12 11 10 9 10 11 12 13 13 14 15 15 15 16 17 17 18 20 22 24 26 27 28 27 24 21 17 18 21 18 12 9 7 10 15 15 20 27 32 37 40 41 40 39 39 39 38 37
Wind_Direction
197 197 192 183 180 176 177 176 174 176 170 172 169 167 166 165 166 165 165 163 161 160 160 153 149 148 145 145 145 145 142 135 136 140 136 134 133 129 122 117 112 108 116 116 115 112 114 109 96 92 87 84 82 80 77 75 77 82 87 89 90 91 95 104 110 112 108 99 97 99 97 94 90 89 90 84 76 74 80 83 84 87 84 78 76
189 191 194 187 184 178 178 180 176 176 172 172 170 171 170 170 171 168 166 163 165 164 162 158 156 156 153 151 152 153 149 142 141 145 142 138 138 138 132 128 126 119 118 122 123 117 118 114 105 102 93 89 86 85 83 78 79 82 87 91 92 91 90 96 105 109 102 98 98 99 98 95 92 90 88 84 76 74 82 85 86 87 85 83 82
183 186 195 190 187 182 179 181 179 177 175 174 171 172 173 173 173 172 169 166 169 167 165 163 163 163 161 159 158 159 154 148 145 148 147 144 146 149 143 137 139 134 130 131 134 130 125 121 115 110 101 96 92 91 90 85 83 81 82 90 97 97 96 99 104 107 98 96 98 98 100 96 92 91 85 78 74 75 79 77 80 84 86 86 84
183 185 194 193 188 186 182 182 182 179 177 176 174 174 175 177 176 175 173 173 174 172 170 167 170 168 168 165 160 161 158 152 149 150 151 151 155 157 153 149 150 144 139 139 141 136 133 135 129 123 116 109 106 104 101 96 92 85 80 87 101 106 108 112 114 113 107 105 104 104 100 95 93 93 88 80 76 75 75 74 76 82 89 90 87
183 185 190 193 190 189 185 183 185 181 180 179 178 178 179 179 178 177 176 177 176 178 176 172 176 171 171 166 161 163 158 155 153 154 155 154 159 161 160 161 156 146 143 146 143 139 143 149 142 140 138 128 125 122 120 114 104 87 65 92 122 124 126 133 136 133 131 124 119 118 103 91 94 99 97 90 86 78 74 73 72 74 83 92 96
182 183 188 193 191 191 189 186 187 184 183 181 181 182 181 182 181 180 179 179 177 178 177 176 176 171 170 165 162 163 160 160 158 159 160 157 162 166 168 170 155 145 146 144 139 139 149 152 147 157 157 148 149 146 150 159 179 285 325 273 205 177 158 154 160 161 160 142 140 134 118 103 100 110 110 101 93 81 77 76 68 64 70 82 96
185 183 188 193 193 193 191 189 189 187 186 184 185 186 183 184 184 183 181 181 180 179 177 176 175 171 169 167 163 162 161 161 162 167 169 165 169 174 179 176 152 148 151 145 140 138 144 142 128 155 176 171 170 171 182 218 257 268 274 265 232 209 188 177 177 176 167 148 150 145 130 116 101 107 124 115 101 90 78 79 72 64 64 69 81
189 188 189 194 196 195 193 192 191 190 190 189 188 188 187 187 187 186 184 183 183 183 180 176 175 173 171 172 168 165 166 164 170 175 178 175 175 181 188 179 155 156 155 145 144 137 132 132 108 129 184 184 180 185 200 241 267 270 264 255 236 218 201 194 193 187 168 148 153 151 137 123 104 87 112 111 102 97 79 83 81 64 60 61 64
191 192 192 195 198 197 195 194 193 192 192 192 191 191 190 189 190 188 186 186 186 185 182 178 177 176 175 176 175 175 174 174 177 179 184 178 173 179 186 178 160 159 152 144 138 129 123 128 109 95 196 203 195 195 219 256 269 267 261 251 236 217 202 197 197 192 174 153 153 153 145 137 124 108 110 105 96 96 90 95 80 49 50 56 61
191 194 196 198 199 198 197 196 196 194 193 195 194 194 193 193 194 191 189 187 188 188 183 180 181 181 181 179 179 182 182 182 181 181 184 174 166 170 175 172 163 160 154 149 137 126 123 131 152 72 262 236 218 217 238 253 247 231 232 228 218 201 189 188 190 188 177 160 154 151 150 154 150 143 142 121 105 105 107 111 6 352 33 72 90
192 194 197 200 201 200 199 197 198 197 195 195 197 197 195 196 196 194 194 190 191 190 184 182 185 185 186 183 182 186 187 188 184 183 184 174 163 162 169 168 166 165 159 158 153 151 133 134 202 200 272 248 224 234 225 188 175 174 184 191 187 180 174 174 181 181 174 160 153 152 155 162 162 155 154 116 84 105 126 135 174 294 150 131 127
194 196 196 201 202 202 201 199 199 199 199 198 199 200 197 197 195 195 195 193 193 192 186 186 188 188 189 188 185 189 194 193 186 185 186 178 168 164 169 171 174 171 169 173 172 186 210 211 233 225 240 243 227 203 145 146 152 157 164 171 173 171 168 170 175 176 172 160 151 152 157 160 154 139 128 110 85 92 116 138 147 154 147 144 146
197 199 198 200 202 204 204 202 202 201 202 201 202 202 200 200 197 195 195 194 193 192 189 190 192 192 192 191 191 193 198 196 190 191 187 184 180 174 175 180 184 182 187 189 184 186 185 203 221 224 235 252 281 145 141 146 148 153 158 160 165 169 172 175 177 175 170 161 154 155 157 156 148 134 122 110 101 107 119 133 145 154 154 146 147
200 202 202 200 201 205 206 205 205 203 204 205 204 204 203 203 201 198 197 196 192 192 192 194 195 196 197 194 196 200 204 200 195 195 187 188 191 183 182 189 195 198 206 207 204 202 200 222 227 221 230 246 207 152 146 151 152 155 159 161 162 159 169 179 182 180 172 162 157 156 158 156 145 138 131 119 115 126 137 142 143 158 165 152 147
210 208 206 204 201 204 207 208 208 206 207 207 206 206 206 205 204 202 200 198 195 195 195 197 197 197 198 198 202 206 211 204 195 197 193 195 200 191 190 196 205 214 223 225 220 215 213 219 222 218 221 220 169 156 151 153 156 160 162 162 159 155 162 173 179 180 175 168 162 159 160 157 145 139 145 140 139 137 142 150 148 155 167 177 177
216 216 213 209 204 204 207 210 211 210 209 210 210 209 210 209 208 206 204 202 199 200 200 199 198 197 197 200 207 210 214 205 196 200 201 203 205 201 202 206 218 224 230 229 217 214 211 206 217 226 224 182 161 158 154 156 160 166 167 162 156 157 164 171 177 178 175 173 172 168 165 162 148 138 143 145 144 144 153 160 165 186 189 210 221
216 219 219 215 209 206 208 210 212 213 212 213 214 213 212 212 212 211 209 208 206 205 205 203 199 198 197 200 207 212 214 206 200 204 206 209 211 211 212 220 231 232 228 221 217 225 220 211 223 233 237 174 163 161 159 162 166 171 170 163 156 161 171 176 181 184 182 177 181 183 179 173 159 146 137 134 136 136 153 159 167 201 213 231 239
214 219 223 223 216 212 211 211 212 214 215 215 216 216 215 214 215 215 213 212 211 208 208 206 203 201 200 201 208 213 213 210 206 205 207 212 215 218 221 228 237 243 231 212 216 222 217 221 230 239 241 194 169 168 166 168 174 177 174 167 164 171 179 182 187 192 191 180 178 188 189 184 177 166 149 139 141 141 155 161 170 196 208 233 249
212 218 223 226 222 218 215 214 213 214 216 216 217 218 218 217 217 217 215 215 214 211 211 209 206 205 205 206 210 214 216 215 210 207 211 214 215 222 228 231 237 249 237 204 203 207 212 227 235 239 232 196 175 175 173 175 178 179 177 174 175 181 186 187 192 196 195 191 182 182 188 186 186 184 176 168 164 175 194 189 194 200 201 217 248
211 216 221 225 224 222 219 218 217 216 217 217 218 219 220 219 219 219 217 217 216 213 213 212 210 209 210 211 214 216 217 217 212 211 215 215 217 227 232 232 236 245 237 205 196 194 210 228 234 236 224 193 181 179 178 179 179 179 178 181 188 191 192 193 200 201 191 192 188 183 187 186 188 194 197 204 201 213 224 219 220 210 199 207 225
213 217 220 223 224 224 223 222 221 219 218 219 219 220 221 220 220 220 219 218 217 216 215 214 213 213 214 216 218 219 218 217 215 214 215 215 219 229 232 232 236 240 232 212 201 192 208 230 233 233 222 193 183 183 185 184 181 183 185 190 197 201 202 204 210 208 194 190 189 185 188 188 188 196 205 215 220 226 227 220 218 201 191 206 213
216 218 221 222 224 226 226 225 224 223 221 220 220 220 221 221 221 221 221 220 219 218 218 218 217 216 217 219 221 223 222 219 217 216 216 217 222 229 231 234 238 240 236 224 214 201 208 227 226 222 213 190 184 188 189 189 189 190 193 197 201 203 202 202 204 204 199 197 196 191 190 188 180 185 203 206 211 216 207 196 188 183 187 189 188
221 221 225 226 226 227 227 228 227 225 223 222 222 221 221 222 222 221 221 222 221 221 221 222 222 221 220 222 224 225 225 222 219 219 219 221 226 231 233 238 242 243 243 233 224 214 214 221 216 210 203 188 189 192 193 194 195 195 195 197 199 200 196 192 197 200 200 200 200 199 199 196 184 178 191 191 201 201 178 177 173 163 167 164 168
230 229 232 230 230 230 230 231 230 227 225 224 224 223 222 223 223 221 221 222 222 223 224 225 225 226 224 225 226 227 227 225 223 221 221 223 226 232 237 244 246 244 244 238 229 223 219 220 218 211 198 190 194 196 199 200 197 197 197 198 197 194 189 188 194 195 195 197 197 200 204 205 199 189 187 189 199 196 171 167 165 151 156 159 163
242 238 236 233 233 234 234 233 232 229 227 226 225 225 223 223 224 222 222 222 223 224 224 225 226 228 228 227 228 228 229 226 224 222 222 224 226 232 238 241 243 242 241 239 232 225 221 220 221 213 197 195 199 199 204 206 202 201 200 199 197 192 187 190 191 192 192 193 194 199 204 208 206 193 183 200 204 190 173 165 162 156 161 161 162
244 239 239 239 236 235 237 235 233 231 230 230 228 228 225 223 225 225 224 223 224 225 225 226 227 229 229 229 228 228 230 228 224 222 223 225 225 230 233 235 238 240 240 239 235 228 224 223 225 217 202 200 200 202 209 210 208 206 205 204 203 197 191 196 195 195 197 196 196 198 202 205 207 196 179 201 208 185 175 172 171 170 169 170 174
253 249 248 245 239 236 236 234 233 232 232 233 231 230 229 227 227 227 226 224 224 224 225 226 228 230 229 229 227 226 228 228 225 223 224 224 225 229 231 233 236 238 240 240 238 233 229 228 230 226 210 204 203 204 209 212 212 210 210 210 210 209 203 206 211 211 215 214 209 206 208 206 207 201 184 192 204 192 186 186 185 185 181 183 182
269 265 263 255 247 240 235 233 233 234 234 233 232 232 232 231 230 228 227 226 225 224 225 227 228 229 230 230 227 227 228 227 225 225 225 226 228 232 233 235 236 239 240 241 240 237 233 231 233 231 217 207 207 207 210 214 216 214 214 215 213 218 220 219 225 228 231 233 227 220 216 213 210 206 194 189 202 200 197 198 195 195 191 192 194
305 285 279 270 258 248 236 233 233 234 235 232 232 233 234 233 232 231 229 227 226 226 227 227 229 230 231 231 228 227 227 227 227 227 228 230 233 235 235 236 237 238 239 240 240 239 235 233 234 234 223 212 211 210 212 216 219 218 216 219 219 223 230 232 237 238 239 241 239 234 226 222 214 210 202 189 197 206 207 204 203 206 203 202 198
26 357 302 275 265 258 244 237 236 236 234 233 233 234 234 233 233 233 231 229 228 229 229 229 231 232 232 232 230 229 229 228 228 229 230 232 235 236 236 237 238 239 241 241 241 241 239 236 234 235 227 218 217 216 218 219 221 223 221 223 224 227 233 236 241 243 244 243 243 244 236 230 220 212 205 192 191 205 212 213 213 214 210 207 197
28 26 15 310 254 259 255 244 239 237 235 234 235 235 235 235 235 234 233 233 233 233 233 233 234 234 235 235 232 231 232 232 231 231 233 234 236 237 238 238 239 240 241 242 243 243 242 240 238 238 232 222 220 222 224 226 225 227 226 227 228 229 234 238 242 245 246 246 246 247 242 236 227 216 209 202 197 198 203 208 214 216 210 211 208
31 31 29 21 239 234 250 249 242 238 236 236 238 237 237 237 236 235 234 235 235 235 235 236 236 237 239 238 236 233 233 234 234 234 235 237 238 238 240 240 241 241 241 242 243 244 244 242 239 239 238 230 227 227 228 229 229 230 230 229 230 230 233 238 243 245 248 249 249 249 243 237 230 221 215 212 208 203 201 201 203 204 210 219 216
33 37 39 40 40 231 236 245 244 241 240 241 241 240 240 238 237 236 235 235 234 235 235 237 239 240 241 241 241 238 235 236 236 237 238 240 241 240 242 242 242 242 241 241 242 243 244 241 237 237 239 237 235 233 229 230 230 232 232 231 231 230 231 235 240 244 249 251 252 250 246 240 232 225 220 216 215 213 209 208 206 198 203 218 215
35 44 49 51 50 54 223 248 243 242 243 243 243 242 241 238 237 236 235 234 233 234 235 237 239 239 241 241 242 241 239 240 240 241 240 241 242 242 243 245 244 242 240 241 242 243 243 240 236 235 239 241 241 236 230 229 230 231 232 231 230 229 230 233 237 241 246 250 252 250 247 242 235 229 225 221 218 219 216 215 213 206 203 208 210
40 47 52 58 62 66 69 75 233 242 242 241 242 242 242 239 237 236 236 237 236 236 236 237 237 238 240 241 242 242 241 242 243 243 242 242 243 243 244 246 245 242 240 240 243 244 242 241 238 236 239 243 243 237 232 231 232 232 229 229 229 228 228 230 232 236 241 245 248 249 246 243 239 233 230 227 224 221 220 219 219 217 215 210 210
44 49 54 62 67 70 74 79 82 90 231 242 243 241 242 238 236 237 239 242 241 241 239 238 238 237 237 238 239 240 241 242 243 243 243 242 243 244 245 246 244 242 241 240 242 244 242 240 239 239 239 240 239 237 234 234 235 234 230 229 229 228 229 229 230 232 236 241 244 244 243 241 239 236 233 231 228 224 222 222 223 222 223 218 216
51 54 57 60 63 67 73 76 77 78 81 91 157 206 217 217 219 223 228 235 238 240 240 238 238 237 238 238 239 239 240 240 241 242 242 242 242 243 245 243 241 241 241 240 242 244 242 239 238 238 238 237 236 236 235 236 237 235 232 231 230 230 231 230 230 232 235 238 239 240 241 241 239 236 235 233 230 227 224 224 222 221 223 222 219
57 59 60 62 63 65 70 74 76 80 83 86 92 101 113 121 125 129 133 144 180 215 229 234 236 240 242 243 243 242 240 240 241 241 242 241 241 241 242 240 239 238 239 242 244 244 242 239 238 237 235 234 235 237 237 237 236 234 233 232 231 231 233 234 234 234 235 236 238 239 240 240 238 237 235 233 231 229 228 226 222 219 220 221 220
60 62 64 66 66 66 68 71 73 76 82 88 92 97 101 101 102 103 99 93 93 101 112 133 170 242 256 256 252 246 244 242 242 243 242 242 240 240 240 240 239 238 238 241 241 240 239 238 237 235 232 232 236 240 240 238 234 233 233 232 231 232 233 236 236 236 237 239 240 240 239 240 241 240 236 231 231 231 230 228 225 222 220 221 221
61 64 67 67 66 67 68 68 66 70 76 80 85 90 92 92 93 92 86 77 72 74 73 68 62 53 41 32 7 298 260 248 244 245 245 246 245 242 241 240 240 238 237 239 239 241 241 240 238 234 230 230 233 237 239 236 230 228 230 230 230 232 234 235 237 238 240 241 240 239 239 242 243 243 240 235 232 232 230 230 228 225 224 222 222
59 62 65 66 66 68 68 66 64 68 70 69 73 76 77 79 80 81 79 73 69 66 63 56 51 48 47 47 47 42 18 329 286 272 269 263 256 250 246 243 243 243 243 242 241 241 241 240 238 233 230 229 230 233 233 229 223 221 226 232 234 234 234 235 237 240 242 242 241 239 240 241 242 243 244 241 237 235 232 230 230 228 227 225 221
55 58 62 64 67 69 69 67 67 69 68 68 72 74 74 76 79 80 80 77 72 68 65 60 55 53 50 48 50 50 40 26 12 1 350 333 311 287 270 260 254 250 248 245 242 239 236 236 234 231 231 231 233 234 229 220 213 215 220 236 245 243 241 240 240 240 240 241 240 240 240 240 242 243 244 244 241 239 236 232 231 230 229 227 224
56 59 62 64 66 67 68 69 70 71 71 73 75 76 78 80 80 80 79 77 72 72 73 68 63 58 53 47 43 38 29 21 9 1 359 356 351 340 322 298 278 262 252 246 243 240 237 236 235 234 233 230 232 234 229 223 215 211 214 243 255 255 255 248 244 241 238 239 240 240 241 241 243 244 244 245 244 242 239 235 233 231 230 229 227
56 58 60 62 62 64 66 69 71 73 75 78 81 85 88 89 88 86 86 84 80 82 83 74 65 58 54 48 41 35 25 15 1 350 345 348 348 346 343 334 319 296 273 259 253 250 244 241 240 239 235 230 230 232 232 228 220 212 204 218 203 290 268 255 249 245 239 237 238 239 240 243 243 243 243 244 245 245 243 240 237 233 232 231 230
56 56 59 62 63 64 67 69 71 73 75 79 85 93 95 94 94 91 87 81 73 71 68 62 60 58 56 51 46 42 37 32 23 11 359 351 347 343 342 340 340 335 317 293 274 266 259 253 249 245 240 235 235 236 235 230 225 223 218 203 143 235 249 260 278 260 242 234 236 238 239 242 243 243 243 245 245 246 245 245 242 238 235 235 233
57 60 63 66 67 68 70 71 71 72 73 76 81 88 89 87 85 80 72 66 59 54 54 54 57 58 58 56 52 48 45 43 38 30 23 14 3 352 346 342 343 344 343 334 309 288 277 269 263 256 250 246 244 243 241 237 232 229 226 226 234 238 255 273 265 290 258 237 235 236 237 239 241 243 245 247 248 247 246 246 246 243 239 238 237
57 64 67 68 69 70 71 71 71 71 71 75 78 82 82 80 80 77 72 68 61 56 56 60 61 62 62 60 57 53 47 43 39 34 31 28 24 15 5 355 350 348 346 344 338 320 298 285 277 270 265 258 251 247 248 247 241 234 232 233 238 245 262 271 233 277 306 257 239 236 237 238 240 243 245 248 250 249 248 246 245 245 242 240 240
59 64 67 68 69 69 71 73 72 72 72 74 77 78 79 79 78 77 73 70 66 62 61 62 63 64 64 60 58 58 52 44 35 26 23 23 25 24 21 15 6 358 353 349 345 338 322 304 291 282 276 268 258 251 250 250 247 244 242 240 241 247 255 259 259 264 281 290 264 243 239 240 240 243 246 249 250 249 249 247 245 245 244 242 241
64 66 68 70 71 71 73 74 73 73 73 75 77 77 78 78 76 74 71 68 66 65 64 62 60 59 58 55 54 55 52 48 40 29 23 19 17 15 17 18 15 9 2 356 350 344 337 325 313 303 293 281 270 260 254 251 249 250 251 248 247 249 253 257 260 264 263 266 275 257 243 242 241 243 245 247 248 248 248 248 248 247 246 245 243
69 71 72 72 73 73 74 74 72 73 74 75 76 76 76 76 74 71 69 66 64 63 62 59 56 55 55 52 49 48 45 42 36 27 22 21 18 13 9 7 5 3 0 357 352 346 341 335 328 320 313 303 293 280 269 263 258 255 255 254 252 250 252 255 256 258 259 254 253 259 250 239 239 247 248 247 248 248 247 247 248 248 248 246 245
72 73 73 73 73 73 74 75 73 74 75 75 76 75 74 73 71 70 67 63 60 59 56 53 51 52 52 51 50 49 46 42 38 32 26 20 16 13 10 4 355 349 349 351 350 346 340 335 331 326 322 317 311 303 291 279 271 265 260 257 256 253 251 252 252 251 250 248 254 264 253 245 243 249 252 252 251 248 246 246 246 247 247 246 245